Volver al catálogo

STARLINK-36492

ActivoComunicacionesVLEO
NORAD 67332·PAYLOAD·🇺🇸 United States

Lanzado Jan 4, 2026 desde Cape Canaveral Space Force Station

Loading…

Próximos Pases (próximas 24 horas)

TLE

ActualizadoSource: CelesTrak SupGP

Época: Sep 14, 2026, 22:49 UTC

1 67332C 26002AD  26257.95118056 -.00022215  00000+0 -80454-3 0  2572
2 67332  43.0014 336.7856 0001287 269.0066 309.0959 15.27593409    11

Sigue STARLINK-36492 en tiempo real con AllMySat

Download on the App Store